COSMOS 1989 (ETALON 1)

Last updated on Wed Aug 26 2026 00:04:27 GMT+0000 (Coordinated Universal Time)

1 19751U 89001C 26237.42782303 .00000033 00000+0 00000+0 0 9994 2 19751 64.9890 69.8291 0023383 217.3836 319.9670 2.13156116292841
UTC large
Height (km)
Speed (km/s)
/
Latitude / Longitude
Inclination (degrees)
Orbital Period (minutes)
Azimuth
Elevation
Range (km)
Doppler Factor

Next 0 passes for location: London (51.5072 / 0.1276)

No passes found over London.
COSMOS 1989 (ETALON 1)